Location: Guayaquil
(2.1667°S, 79.9000°W)
Time: 13:18:31
(UTC-05:00)

DNEPR OBJECT AB - Visible Passes

Search period start: 16 October 2018 00:00
Search period end: 26 October 2018 00:00
Orbit: 588 x 703 km, 97.6° (Epoch: 15 October)

Date Brightness Start Highest point End Pass type
(mag) Time Alt. Az. Time Alt. Az. Time Alt. Az.
16 Oct ? 05:25:51 10° ENE 05:28:11 15° ESE 05:30:31 10° SE visible
16 Oct ? 19:12:56 10° SW 19:16:07 18° WSW 19:19:17 10° WNW visible
18 Oct ? 18:25:18 10° S 18:30:04 72° WSW 18:34:46 10° NNW visible
19 Oct ? 18:50:57 10° SSW 18:55:12 32° WSW 18:59:24 10° NW visible
20 Oct ? 05:29:31 10° ENE 05:32:17 17° ESE 05:35:06 10° SE visible
20 Oct ? 19:17:33 10° SW 19:20:18 15° WSW 19:23:01 10° WNW visible
22 Oct ? 18:29:33 10° S 18:34:16 61° WSW 18:38:52 10° NNW visible
23 Oct ? 18:55:21 10° SSW 18:59:23 28° WSW 19:03:21 10° NW visible
24 Oct ? 05:33:15 10° NE 05:36:23 21° ESE 05:39:34 10° SSE visible
24 Oct ? 19:22:21 10° SW 19:24:28 13° WSW 19:26:34 10° WNW visible
